{"data":{"norad_id":66237,"intl_designator":"2025-245D","name":"STARLINK-35557","alt_names":[],"object_type":"PAYLOAD","status":"ACTIVE","operator":null,"country":"US","launch_date":"2025-10-29","launch_site_code":"AFETR","launch_vehicle":null,"mission":null,"orbit_class":"UNKNOWN","rcs_meters":null,"size_class":null,"mass_kg":null,"dimensions":null,"purposes":["comms"],"wikipedia_slug":null,"has_3d_model":false,"image_url":null,"decayed_at":null,"tle_current":{"epoch":"2026-09-20T23:02:42.123264Z","epoch_age_seconds":56921,"freshness":"FRESH","line1":"1 66237U 25245D   26263.96020976  .00025477  00000+0  76238-3 0  9993","line2":"2 66237  53.1577  91.8976 0000999  76.3470 283.7644 15.34409030 51221","mean_motion":15.3440903,"eccentricity":9.99e-5,"inclination_deg":53.1577,"raan_deg":91.8976,"arg_perigee_deg":76.347,"mean_anomaly_deg":283.7644,"bstar":0.00076238,"rev_number":5122,"period_min":93.847205787104,"perigee_km":461.99300401695,"apogee_km":463.35979853453,"semimajor_km":6840.8134012757,"source":"CELESTRAK","updated_at":"2026-09-21T09:00:35.846108Z"}}}